QPF
0.04 0.03 0.03 0.04 0.04 0.03 0.02 0.01 0.02 0.04 0.10 0.18 0.18 0.15 0.11 0.08 0.05 0.05 0.05 0.05 0.05 0.04 0.02 0.02 0.01 0.01 0.01 0.01 0.00 0.00 0.00 0.00 0.01 0.01 0.01 0.00 0.00 0.00 0.00 0.00 0.00 0.00 0.00 0.00
0.02 0.01 0.02 0.06 0.07 0.07 0.06 0.05 0.06 0.11 0.22 0.34 0.36 0.27 0.20 0.16 0.12 0.10 0.09 0.08 0.08 0.08 0.06 0.05 0.04 0.03 0.03 0.02 0.02 0.02 0.01 0.01 0.01 0.01 0.00 0.00 0.00 0.00 0.00 0.00 0.00 0.00 0.00 0.00
0.01 0.01 0.01 0.03 0.03 0.02 0.03 0.05 0.08 0.14 0.22 0.32 0.35 0.29 0.25 0.24 0.21 0.17 0.15 0.15 0.14 0.14 0.13 0.12 0.10 0.08 0.07 0.05 0.04 0.03 0.02 0.01 0.01 0.00 0.00 0.00 0.00 0.00 0.00 0.00 0.00 0.00 0.00 0.00
0.01 0.02 0.04 0.05 0.02 0.01 0.03 0.05 0.08 0.11 0.15 0.20 0.21 0.20 0.19 0.20 0.20 0.21 0.21 0.22 0.23 0.23 0.23 0.21 0.18 0.13 0.10 0.06 0.04 0.03 0.02 0.01 0.01 0.01 0.01 0.01 0.01 0.01 0.01 0.01 0.01 0.01 0.00 0.00
0.02 0.04 0.06 0.09 0.03 0.01 0.03 0.08 0.08 0.11 0.10 0.11 0.11 0.11 0.12 0.15 0.18 0.21 0.24 0.27 0.30 0.30 0.26 0.20 0.14 0.10 0.07 0.05 0.04 0.04 0.03 0.03 0.02 0.01 0.01 0.01 0.01 0.01 0.01 0.01 0.01 0.00 0.00 0.00
0.04 0.07 0.12 0.15 0.04 0.01 0.04 0.15 0.14 0.14 0.14 0.14 0.15 0.15 0.14 0.16 0.18 0.19 0.19 0.18 0.16 0.14 0.11 0.08 0.07 0.05 0.03 0.02 0.02 0.02 0.01 0.01 0.01 0.01 0.01 0.01 0.01 0.01 0.01 0.01 0.01 0.00 0.00 0.00
0.08 0.10 0.13 0.05 0.01 0.03 0.11 0.20 0.25 0.20 0.16 0.14 0.14 0.14 0.15 0.16 0.16 0.15 0.12 0.10 0.08 0.06 0.05 0.04 0.03 0.03 0.02 0.02 0.01 0.01 0.01 0.01 0.01 0.01 0.01 0.01 0.01 0.01 0.01 0.01 0.01 0.01 0.01 0.01
0.08 0.11 0.13 0.04 0.02 0.07 0.14 0.19 0.18 0.14 0.09 0.06 0.05 0.04 0.04 0.04 0.04 0.04 0.04 0.04 0.04 0.03 0.03 0.02 0.02 0.02 0.02 0.02 0.01 0.01 0.01 0.01 0.01 0.01 0.00 0.00 0.01 0.01 0.01 0.02 0.02 0.02 0.02 0.02
0.06 0.09 0.11 0.07 0.07 0.10 0.15 0.19 0.16 0.10 0.05 0.02 0.01 0.01 0.01 0.01 0.01 0.01 0.01 0.01 0.01 0.01 0.01 0.02 0.02 0.02 0.02 0.02 0.02 0.02 0.03 0.02 0.02 0.01 0.00 0.00 0.01 0.01 0.02 0.03 0.02 0.02 0.02 0.02
0.04 0.08 0.07 0.06 0.06 0.06 0.09 0.12 0.11 0.08 0.05 0.02 0.01 0.01 0.01 0.01 0.01 0.01 0.01 0.01 0.01 0.02 0.02 0.03 0.03 0.04 0.05 0.04 0.04 0.05 0.06 0.05 0.03 0.02 0.01 0.01 0.01 0.01 0.02 0.03 0.01 0.01 0.02 0.02
0.03 0.06 0.07 0.08 0.05 0.04 0.05 0.06 0.07 0.08 0.07 0.03 0.01 0.00 0.00 0.01 0.01 0.01 0.02 0.02 0.02 0.03 0.03 0.03 0.03 0.04 0.04 0.04 0.05 0.07 0.07 0.04 0.02 0.02 0.01 0.01 0.02 0.01 0.01 0.01 0.00 0.00 0.01 0.01
0.05 0.05 0.05 0.07 0.04 0.03 0.05 0.08 0.10 0.08 0.05 0.03 0.01 0.01 0.01 0.01 0.02 0.02 0.02 0.02 0.02 0.02 0.02 0.02 0.02 0.02 0.02 0.03 0.04 0.05 0.06 0.03 0.01 0.01 0.01 0.01 0.02 0.03 0.01 0.00 0.00 0.00 0.00 0.00
0.01 0.00 0.01 0.01 0.01 0.02 0.05 0.08 0.10 0.09 0.05 0.03 0.02 0.02 0.02 0.02 0.02 0.02 0.02 0.02 0.01 0.01 0.00 0.00 0.00 0.00 0.01 0.01 0.01 0.02 0.02 0.01 0.01 0.01 0.01 0.01 0.01 0.04 0.05 0.02 0.00 0.00 0.00 0.00
0.00 0.00 0.01 0.02 0.02 0.02 0.04 0.06 0.07 0.05 0.03 0.02 0.02 0.02 0.02 0.01 0.01 0.01 0.01 0.00 0.00 0.00 0.00 0.00 0.00 0.00 0.00 0.00 0.00 0.00 0.01 0.00 0.00 0.00 0.00 0.00 0.00 0.01 0.03 0.05 0.04 0.02 0.01 0.00
0.00 0.00 0.01 0.02 0.02 0.03 0.04 0.05 0.04 0.03 0.02 0.02 0.02 0.01 0.01 0.01 0.01 0.01 0.00 0.00 0.00 0.00 0.00 0.00 0.00 0.00 0.00 0.00 0.00 0.00 0.00 0.01 0.00 0.00 0.00 0.00 0.00 0.00 0.00 0.01 0.04 0.05 0.03 0.01
0.00 0.00 0.01 0.01 0.02 0.02 0.03 0.03 0.02 0.02 0.02 0.02 0.01 0.01 0.01 0.01 0.00 0.00 0.00 0.00 0.00 0.00 0.00 0.00 0.00 0.00 0.00 0.00 0.00 0.00 0.00 0.01 0.00 0.00 0.00 0.00 0.00 0.00 0.00 0.01 0.02 0.03 0.02 0.01
0.00 0.01 0.01 0.01 0.01 0.01 0.02 0.01 0.01 0.02 0.02 0.01 0.01 0.01 0.00 0.00 0.01 0.00 0.00 0.00 0.00 0.00 0.00 0.00 0.00 0.00 0.00 0.00 0.00 0.00 0.00 0.00 0.00 0.00 0.00 0.00 0.00 0.00 0.00 0.00 0.01 0.01 0.01 0.00
0.00 0.00 0.01 0.01 0.01 0.01 0.01 0.01 0.01 0.01 0.01 0.01 0.00 0.00 0.00 0.00 0.01 0.00 0.00 0.00 0.00 0.00 0.00 0.00 0.00 0.00 0.00 0.00 0.00 0.00 0.00 0.00 0.00 0.00 0.00 0.00 0.00 0.00 0.00 0.00 0.00 0.01 0.01 0.01
0.00 0.00 0.01 0.01 0.01 0.01 0.01 0.01 0.01 0.00 0.00 0.00 0.00 0.00 0.00 0.00 0.00 0.00 0.00 0.00 0.00 0.00 0.00 0.00 0.00 0.00 0.00 0.00 0.00 0.00 0.00 0.00 0.00 0.00 0.00 0.00 0.00 0.00 0.00 0.00 0.00 0.00 0.01 0.01
0.00 0.00 0.00 0.01 0.00 0.00 0.00 0.00 0.00 0.00 0.00 0.00 0.00 0.00 0.00 0.00 0.00 0.00 0.00 0.00 0.00 0.00 0.00 0.00 0.00 0.00 0.00 0.00 0.00 0.00 0.00 0.00 0.00 0.00 0.00 0.00 0.00 0.00 0.00 0.00 0.00 0.00 0.00 0.01
0.00 0.00 0.00 0.00 0.00 0.00 0.00 0.00 0.00 0.00 0.00 0.00 0.00 0.00 0.00 0.00 0.00 0.00 0.00 0.00 0.00 0.00 0.00 0.00 0.00 0.00 0.00 0.00 0.00 0.00 0.00 0.00 0.00 0.00 0.00 0.00 0.00 0.00 0.00 0.00 0.00 0.00 0.00 0.01
0.00 0.00 0.00 0.00 0.00 0.00 0.00 0.00 0.00 0.00 0.00 0.00 0.00 0.00 0.00 0.00 0.00 0.00 0.00 0.00 0.00 0.00 0.00 0.00 0.00 0.00 0.00 0.00 0.00 0.00 0.00 0.00 0.00 0.00 0.00 0.00 0.00 0.00 0.00 0.00 0.00 0.00 0.00 0.01
0.00 0.00 0.00 0.00 0.00 0.00 0.00 0.00 0.00 0.00 0.00 0.00 0.00 0.00 0.00 0.00 0.00 0.00 0.00 0.00 0.00 0.00 0.00 0.00 0.00 0.00 0.00 0.00 0.00 0.00 0.00 0.00 0.00 0.00 0.00 0.00 0.00 0.00 0.00 0.00 0.00 0.00 0.00 0.00
0.00 0.00 0.00 0.00 0.00 0.00 0.00 0.00 0.00 0.00 0.00 0.00 0.00 0.00 0.00 0.00 0.00 0.00 0.00 0.00 0.00 0.00 0.00 0.00 0.00 0.00 0.00 0.00 0.00 0.00 0.00 0.00 0.00 0.00 0.00 0.00 0.00 0.00 0.00 0.00 0.00 0.00 0.00 0.00
0.00 0.00 0.00 0.00 0.00 0.00 0.00 0.00 0.00 0.00 0.00 0.00 0.00 0.00 0.00 0.00 0.00 0.00 0.00 0.00 0.00 0.00 0.00 0.00 0.00 0.00 0.00 0.00 0.00 0.00 0.00 0.00 0.00 0.00 0.00 0.00 0.00 0.00 0.00 0.00 0.00 0.00 0.00 0.00
0.00 0.00 0.00 0.00 0.00 0.00 0.00 0.00 0.00 0.00 0.00 0.00 0.00 0.00 0.00 0.00 0.00 0.00 0.00 0.00 0.00 0.00 0.00 0.00 0.00 0.00 0.00 0.00 0.00 0.00 0.00 0.00 0.00 0.00 0.00 0.00 0.00 0.00 0.00 0.00 0.00 0.00 0.00 0.00
0.01 0.01 0.00 0.00 0.00 0.00 0.00 0.00 0.00 0.00 0.00 0.00 0.00 0.00 0.00 0.00 0.00 0.00 0.00 0.00 0.00 0.00 0.00 0.00 0.00 0.00 0.00 0.00 0.00 0.00 0.00 0.00 0.00 0.00 0.00 0.00 0.00 0.00 0.00 0.00 0.00 0.00 0.00 0.00
MSLP
1009.49 1009.52 1009.53 1009.52 1009.50 1009.49 1009.50 1009.56 1009.69 1009.92 1010.26 1010.72 1011.32 1012.02 1012.79 1013.60 1014.37 1015.07 1015.65 1016.09 1016.38 1016.54 1016.63 1016.70 1016.79 1016.96 1017.24 1017.64 1018.13 1018.68 1019.24 1019.76 1020.20 1020.53 1020.77 1020.93 1021.04 1021.15 1021.29 1021.50 1021.78 1022.13 1022.53 1022.94
1010.13 1010.21 1010.24 1010.24 1010.24 1010.25 1010.31 1010.44 1010.66 1011.01 1011.47 1012.05 1012.74 1013.50 1014.29 1015.06 1015.76 1016.35 1016.81 1017.13 1017.32 1017.42 1017.47 1017.53 1017.65 1017.86 1018.18 1018.62 1019.13 1019.68 1020.22 1020.70 1021.10 1021.39 1021.59 1021.70 1021.78 1021.86 1021.98 1022.16 1022.43 1022.76 1023.13 1023.52
1010.71 1010.84 1010.92 1010.96 1010.99 1011.05 1011.17 1011.37 1011.69 1012.13 1012.70 1013.37 1014.13 1014.92 1015.70 1016.43 1017.06 1017.57 1017.94 1018.17 1018.28 1018.34 1018.37 1018.43 1018.56 1018.79 1019.13 1019.56 1020.06 1020.58 1021.08 1021.51 1021.85 1022.10 1022.24 1022.32 1022.37 1022.43 1022.54 1022.70 1022.95 1023.25 1023.60 1023.96
1011.23 1011.41 1011.54 1011.62 1011.70 1011.81 1011.98 1012.25 1012.64 1013.16 1013.80 1014.52 1015.32 1016.12 1016.89 1017.58 1018.16 1018.61 1018.91 1019.09 1019.18 1019.21 1019.24 1019.31 1019.46 1019.70 1020.03 1020.44 1020.90 1021.36 1021.79 1022.15 1022.43 1022.61 1022.71 1022.76 1022.78 1022.83 1022.92 1023.07 1023.29 1023.57 1023.88 1024.20
1011.69 1011.91 1012.07 1012.19 1012.31 1012.46 1012.67 1012.99 1013.43 1013.99 1014.66 1015.42 1016.22 1017.02 1017.77 1018.44 1018.98 1019.40 1019.68 1019.85 1019.93 1019.98 1020.04 1020.13 1020.29 1020.53 1020.84 1021.21 1021.61 1022.00 1022.34 1022.62 1022.82 1022.94 1022.99 1023.01 1023.01 1023.04 1023.12 1023.26 1023.46 1023.71 1023.99 1024.27
1012.11 1012.33 1012.51 1012.65 1012.79 1012.96 1013.21 1013.55 1014.01 1014.59 1015.27 1016.03 1016.83 1017.61 1018.35 1018.99 1019.52 1019.93 1020.22 1020.41 1020.53 1020.61 1020.70 1020.83 1021.01 1021.24 1021.53 1021.85 1022.18 1022.48 1022.74 1022.93 1023.06 1023.11 1023.12 1023.11 1023.10 1023.12 1023.19 1023.31 1023.49 1023.72 1023.96 1024.20
1012.47 1012.68 1012.86 1013.00 1013.15 1013.34 1013.60 1013.95 1014.42 1015.00 1015.67 1016.42 1017.20 1017.96 1018.68 1019.31 1019.84 1020.26 1020.57 1020.80 1020.96 1021.10 1021.24 1021.39 1021.59 1021.82 1022.07 1022.34 1022.60 1022.82 1023.00 1023.11 1023.17 1023.17 1023.15 1023.12 1023.10 1023.12 1023.19 1023.30 1023.47 1023.68 1023.90 1024.12
1012.78 1012.98 1013.14 1013.29 1013.44 1013.63 1013.89 1014.25 1014.71 1015.28 1015.94 1016.66 1017.42 1018.16 1018.86 1019.48 1020.01 1020.44 1020.78 1021.05 1021.26 1021.45 1021.63 1021.81 1022.02 1022.24 1022.46 1022.68 1022.87 1023.02 1023.13 1023.18 1023.19 1023.16 1023.12 1023.08 1023.07 1023.10 1023.17 1023.30 1023.47 1023.67 1023.88 1024.08
1013.06 1013.24 1013.40 1013.54 1013.70 1013.90 1014.17 1014.52 1014.98 1015.54 1016.18 1016.88 1017.60 1018.32 1018.99 1019.59 1020.12 1020.56 1020.92 1021.22 1021.47 1021.69 1021.89 1022.10 1022.30 1022.51 1022.70 1022.87 1023.00 1023.10 1023.15 1023.16 1023.13 1023.09 1023.05 1023.03 1023.04 1023.09 1023.20 1023.35 1023.53 1023.74 1023.96 1024.16
1013.32 1013.50 1013.66 1013.82 1013.99 1014.21 1014.49 1014.86 1015.32 1015.86 1016.48 1017.14 1017.83 1018.51 1019.15 1019.73 1020.24 1020.67 1021.03 1021.34 1021.60 1021.83 1022.04 1022.24 1022.44 1022.62 1022.78 1022.91 1023.00 1023.05 1023.06 1023.05 1023.02 1022.98 1022.96 1022.97 1023.02 1023.12 1023.26 1023.45 1023.67 1023.91 1024.14 1024.35
1013.58 1013.78 1013.96 1014.15 1014.36 1014.61 1014.92 1015.30 1015.75 1016.28 1016.88 1017.51 1018.15 1018.78 1019.38 1019.91 1020.39 1020.79 1021.13 1021.42 1021.67 1021.89 1022.09 1022.28 1022.44 1022.59 1022.72 1022.81 1022.86 1022.89 1022.88 1022.86 1022.83 1022.82 1022.83 1022.88 1022.98 1023.14 1023.34 1023.58 1023.85 1024.13 1024.39 1024.62
1013.84 1014.08 1014.32 1014.56 1014.82 1015.11 1015.45 1015.84 1016.31 1016.82 1017.39 1017.97 1018.57 1019.14 1019.67 1020.15 1020.57 1020.92 1021.23 1021.48 1021.69 1021.88 1022.05 1022.20 1022.34 1022.45 1022.54 1022.60 1022.62 1022.62 1022.61 1022.59 1022.58 1022.59 1022.64 1022.75 1022.91 1023.12 1023.39 1023.69 1024.01 1024.33 1024.63 1024.89
1014.11 1014.42 1014.72 1015.03 1015.34 1015.68 1016.06 1016.47 1016.93 1017.43 1017.96 1018.49 1019.03 1019.53 1019.99 1020.41 1020.76 1021.06 1021.31 1021.51 1021.68 1021.83 1021.96 1022.07 1022.17 1022.24 1022.29 1022.32 1022.32 1022.31 1022.29 1022.27 1022.28 1022.32 1022.41 1022.56 1022.77 1023.04 1023.36 1023.72 1024.09 1024.46 1024.80 1025.07
1014.38 1014.77 1015.15 1015.52 1015.90 1016.29 1016.69 1017.12 1017.57 1018.04 1018.52 1019.01 1019.47 1019.91 1020.30 1020.65 1020.94 1021.18 1021.38 1021.53 1021.66 1021.77 1021.85 1021.93 1021.98 1022.02 1022.04 1022.04 1022.02 1021.99 1021.96 1021.94 1021.95 1022.01 1022.13 1022.31 1022.56 1022.88 1023.25 1023.65 1024.07 1024.47 1024.83 1025.13
1014.65 1015.11 1015.57 1016.01 1016.44 1016.87 1017.29 1017.72 1018.15 1018.59 1019.03 1019.45 1019.86 1020.23 1020.57 1020.85 1021.09 1021.29 1021.44 1021.56 1021.66 1021.73 1021.79 1021.83 1021.85 1021.86 1021.85 1021.82 1021.77 1021.72 1021.68 1021.66 1021.67 1021.73 1021.85 1022.05 1022.32 1022.66 1023.05 1023.48 1023.92 1024.35 1024.73 1025.04
1014.90 1015.44 1015.96 1016.45 1016.93 1017.37 1017.80 1018.22 1018.63 1019.03 1019.42 1019.80 1020.15 1020.48 1020.77 1021.02 1021.22 1021.39 1021.52 1021.63 1021.70 1021.76 1021.80 1021.82 1021.82 1021.80 1021.77 1021.71 1021.65 1021.58 1021.51 1021.47 1021.47 1021.52 1021.63 1021.82 1022.09 1022.43 1022.83 1023.26 1023.71 1024.14 1024.53 1024.85
1015.14 1015.73 1016.29 1016.83 1017.32 1017.77 1018.20 1018.59 1018.97 1019.33 1019.68 1020.02 1020.34 1020.64 1020.91 1021.14 1021.35 1021.51 1021.65 1021.75 1021.83 1021.88 1021.91 1021.92 1021.92 1021.88 1021.83 1021.76 1021.67 1021.57 1021.49 1021.42 1021.39 1021.42 1021.51 1021.68 1021.92 1022.24 1022.62 1023.04 1023.47 1023.90 1024.28 1024.60
1015.36 1015.99 1016.58 1017.13 1017.62 1018.07 1018.47 1018.84 1019.18 1019.51 1019.83 1020.15 1020.45 1020.74 1021.01 1021.26 1021.48 1021.67 1021.82 1021.94 1022.04 1022.10 1022.14 1022.15 1022.14 1022.09 1022.03 1021.94 1021.83 1021.72 1021.61 1021.52 1021.46 1021.46 1021.52 1021.65 1021.86 1022.14 1022.48 1022.87 1023.28 1023.68 1024.05 1024.36
1015.60 1016.24 1016.84 1017.38 1017.86 1018.28 1018.64 1018.98 1019.29 1019.60 1019.90 1020.20 1020.51 1020.81 1021.11 1021.38 1021.64 1021.86 1022.05 1022.20 1022.32 1022.40 1022.44 1022.46 1022.44 1022.40 1022.32 1022.22 1022.10 1021.98 1021.85 1021.74 1021.67 1021.63 1021.66 1021.76 1021.92 1022.16 1022.46 1022.80 1023.17 1023.55 1023.89 1024.18
1015.87 1016.51 1017.09 1017.61 1018.05 1018.43 1018.76 1019.06 1019.34 1019.62 1019.92 1020.22 1020.55 1020.87 1021.20 1021.52 1021.81 1022.07 1022.30 1022.48 1022.62 1022.72 1022.77 1022.79 1022.77 1022.72 1022.65 1022.54 1022.42 1022.29 1022.16 1022.05 1021.96 1021.91 1021.91 1021.98 1022.11 1022.30 1022.56 1022.86 1023.19 1023.52 1023.84 1024.11
1016.16 1016.79 1017.35 1017.83 1018.23 1018.56 1018.85 1019.12 1019.37 1019.64 1019.92 1020.24 1020.58 1020.93 1021.29 1021.65 1021.98 1022.28 1022.53 1022.74 1022.89 1023.00 1023.06 1023.07 1023.05 1023.00 1022.93 1022.83 1022.72 1022.60 1022.48 1022.37 1022.29 1022.24 1022.23 1022.28 1022.39 1022.55 1022.76 1023.02 1023.31 1023.61 1023.90 1024.15
1016.48 1017.08 1017.61 1018.05 1018.40 1018.69 1018.94 1019.17 1019.40 1019.65 1019.93 1020.25 1020.61 1020.99 1021.37 1021.76 1022.11 1022.43 1022.70 1022.92 1023.08 1023.18 1023.24 1023.25 1023.23 1023.18 1023.11 1023.02 1022.93 1022.84 1022.75 1022.67 1022.61 1022.58 1022.58 1022.63 1022.72 1022.87 1023.05 1023.28 1023.53 1023.80 1024.06 1024.30
1016.79 1017.37 1017.86 1018.25 1018.56 1018.81 1019.02 1019.22 1019.42 1019.66 1019.94 1020.26 1020.62 1021.01 1021.42 1021.81 1022.17 1022.50 1022.77 1022.98 1023.13 1023.23 1023.28 1023.29 1023.26 1023.22 1023.17 1023.11 1023.05 1022.99 1022.95 1022.91 1022.89 1022.90 1022.93 1022.99 1023.09 1023.23 1023.40 1023.60 1023.83 1024.07 1024.31 1024.54
1017.05 1017.60 1018.06 1018.42 1018.69 1018.90 1019.07 1019.24 1019.43 1019.65 1019.92 1020.24 1020.60 1020.99 1021.39 1021.78 1022.14 1022.46 1022.72 1022.92 1023.06 1023.14 1023.18 1023.19 1023.18 1023.15 1023.12 1023.10 1023.08 1023.08 1023.08 1023.10 1023.14 1023.19 1023.26 1023.35 1023.47 1023.61 1023.78 1023.97 1024.19 1024.41 1024.64 1024.85
1017.22 1017.75 1018.17 1018.50 1018.74 1018.92 1019.07 1019.22 1019.39 1019.60 1019.86 1020.17 1020.52 1020.90 1021.29 1021.66 1022.01 1022.31 1022.55 1022.74 1022.87 1022.94 1022.98 1023.00 1023.00 1023.00 1023.00 1023.02 1023.06 1023.12 1023.18 1023.27 1023.36 1023.47 1023.58 1023.71 1023.85 1024.01 1024.19 1024.38 1024.59 1024.81 1025.03 1025.25
1017.26 1017.76 1018.16 1018.47 1018.69 1018.85 1018.99 1019.13 1019.29 1019.49 1019.74 1020.04 1020.37 1020.73 1021.10 1021.46 1021.79 1022.07 1022.30 1022.47 1022.60 1022.68 1022.73 1022.76 1022.79 1022.82 1022.88 1022.95 1023.04 1023.16 1023.29 1023.44 1023.59 1023.75 1023.91 1024.08 1024.25 1024.43 1024.62 1024.82 1025.04 1025.26 1025.48 1025.70
1017.15 1017.64 1018.02 1018.31 1018.52 1018.68 1018.82 1018.96 1019.12 1019.32 1019.56 1019.85 1020.17 1020.52 1020.87 1021.20 1021.51 1021.78 1022.00 1022.18 1022.31 1022.40 1022.48 1022.54 1022.61 1022.69 1022.80 1022.93 1023.08 1023.26 1023.45 1023.66 1023.86 1024.07 1024.28 1024.48 1024.68 1024.88 1025.08 1025.30 1025.52 1025.74 1025.98 1026.21
Thickness
5663 5664 5665 5665 5666 5672 5672 5679 5681 5681 5677 5671 5665 5657 5649 5643 5638 5634 5632 5630 5628 5626 5624 5623 5622 5620 5617 5614 5610 5606 5601 5595 5589 5583 5578 5573 5568 5564 5559 5555 5550 5546 5541 5537
5662 5669 5671 5665 5662 5662 5660 5661 5662 5662 5652 5651 5647 5641 5633 5629 5625 5620 5617 5615 5612 5609 5607 5605 5603 5601 5598 5594 5590 5586 5581 5575 5569 5564 5558 5553 5549 5545 5541 5538 5534 5530 5525 5520
5654 5669 5668 5653 5650 5654 5653 5655 5652 5642 5633 5631 5625 5619 5614 5611 5609 5606 5602 5598 5594 5591 5588 5586 5583 5581 5577 5574 5570 5565 5560 5555 5550 5545 5540 5535 5532 5528 5525 5521 5517 5513 5508 5503
5649 5650 5632 5634 5652 5654 5648 5641 5640 5631 5621 5613 5604 5597 5595 5596 5594 5590 5586 5582 5577 5574 5571 5568 5564 5560 5557 5553 5549 5544 5540 5536 5531 5528 5524 5519 5516 5513 5509 5505 5502 5497 5492 5487
5638 5634 5626 5624 5632 5636 5634 5623 5624 5616 5606 5599 5595 5590 5578 5576 5576 5573 5569 5565 5562 5558 5555 5551 5548 5544 5541 5537 5532 5528 5523 5519 5516 5513 5509 5505 5502 5498 5494 5491 5487 5483 5477 5472
5630 5617 5606 5606 5624 5636 5631 5602 5607 5605 5598 5594 5594 5581 5564 5560 5560 5557 5554 5551 5548 5544 5541 5536 5533 5530 5527 5522 5517 5513 5509 5506 5503 5499 5496 5492 5488 5484 5480 5476 5472 5469 5463 5459
5619 5611 5601 5611 5625 5629 5601 5584 5592 5592 5589 5585 5578 5568 5556 5551 5549 5546 5543 5540 5536 5533 5528 5524 5521 5517 5513 5509 5504 5501 5497 5494 5490 5486 5482 5478 5473 5470 5466 5463 5458 5454 5451 5447
5611 5599 5587 5607 5611 5598 5585 5588 5586 5582 5577 5570 5563 5554 5547 5543 5539 5536 5532 5529 5526 5521 5516 5512 5508 5504 5500 5497 5493 5489 5485 5481 5477 5473 5471 5465 5460 5456 5453 5449 5446 5442 5438 5434
5603 5593 5596 5599 5595 5592 5589 5583 5579 5575 5569 5563 5555 5547 5541 5536 5532 5528 5525 5520 5516 5512 5507 5501 5497 5494 5490 5486 5482 5478 5473 5469 5465 5460 5456 5452 5448 5444 5441 5437 5435 5431 5427 5423
5601 5595 5596 5594 5591 5588 5585 5579 5575 5570 5564 5557 5550 5542 5535 5530 5525 5520 5516 5512 5507 5504 5499 5493 5489 5485 5481 5477 5472 5467 5463 5458 5454 5449 5445 5441 5437 5435 5431 5426 5423 5420 5416 5412
5598 5593 5588 5583 5582 5580 5577 5574 5570 5564 5558 5550 5543 5536 5529 5524 5518 5514 5509 5505 5501 5497 5492 5488 5483 5478 5474 5469 5464 5458 5453 5449 5445 5441 5438 5433 5428 5422 5419 5411 5407 5404 5402 5399
5585 5585 5580 5575 5576 5575 5571 5567 5563 5557 5550 5543 5536 5529 5523 5518 5512 5508 5504 5500 5495 5491 5487 5482 5478 5473 5467 5462 5457 5450 5445 5441 5438 5434 5430 5427 5423 5414 5406 5402 5397 5393 5389 5386
5587 5584 5580 5575 5571 5568 5565 5562 5557 5551 5544 5536 5530 5524 5519 5513 5508 5504 5500 5495 5490 5486 5481 5476 5471 5466 5460 5455 5449 5443 5437 5433 5430 5428 5424 5421 5419 5414 5404 5394 5390 5387 5385 5382
5583 5579 5572 5567 5563 5562 5558 5555 5550 5543 5537 5530 5524 5519 5514 5510 5505 5500 5496 5491 5487 5482 5477 5471 5466 5460 5454 5449 5443 5437 5433 5427 5424 5422 5420 5418 5416 5415 5410 5401 5394 5389 5384 5381
5576 5572 5565 5560 5556 5553 5550 5546 5540 5533 5528 5523 5519 5515 5511 5506 5501 5497 5493 5489 5484 5479 5474 5468 5462 5457 5452 5446 5440 5435 5431 5427 5422 5421 5420 5418 5416 5413 5409 5404 5398 5393 5388 5385
5570 5565 5559 5553 5549 5545 5541 5537 5532 5528 5524 5520 5517 5513 5509 5504 5499 5495 5491 5487 5482 5476 5470 5465 5460 5456 5452 5447 5441 5438 5432 5424 5422 5422 5422 5419 5416 5413 5408 5403 5399 5395 5392 5390
5565 5558 5553 5548 5543 5539 5536 5533 5529 5526 5522 5518 5515 5511 5507 5502 5497 5493 5489 5484 5478 5473 5468 5463 5458 5454 5452 5448 5442 5442 5438 5431 5423 5423 5422 5419 5416 5412 5408 5404 5401 5397 5395 5392
5566 5560 5554 5548 5542 5537 5533 5530 5528 5524 5521 5518 5514 5510 5505 5501 5496 5491 5487 5482 5478 5473 5468 5462 5456 5452 5451 5447 5442 5440 5440 5437 5431 5427 5423 5418 5416 5413 5410 5407 5404 5402 5400 5398
5561 5555 5550 5545 5541 5537 5533 5530 5527 5524 5521 5518 5513 5509 5505 5500 5495 5491 5488 5484 5479 5472 5466 5462 5456 5453 5452 5447 5442 5443 5443 5440 5434 5429 5425 5418 5419 5418 5414 5412 5410 5408 5407 5405
5557 5552 5547 5542 5539 5535 5532 5529 5527 5523 5520 5517 5512 5508 5504 5500 5496 5492 5488 5483 5476 5471 5467 5461 5460 5458 5453 5449 5444 5448 5446 5442 5438 5434 5430 5428 5425 5422 5420 5417 5415 5413 5411 5410
5552 5548 5544 5540 5537 5534 5532 5529 5526 5522 5519 5516 5512 5508 5503 5499 5497 5492 5489 5483 5476 5471 5468 5462 5460 5457 5453 5447 5447 5450 5448 5443 5440 5436 5434 5432 5429 5426 5423 5420 5418 5416 5414 5413
5549 5545 5541 5538 5535 5532 5531 5528 5525 5522 5518 5515 5512 5508 5503 5500 5497 5492 5487 5483 5477 5469 5470 5467 5460 5453 5449 5446 5451 5451 5448 5445 5442 5439 5437 5434 5431 5428 5425 5422 5419 5418 5416 5414
5546 5542 5539 5536 5534 5531 5529 5528 5525 5522 5518 5516 5512 5508 5505 5503 5502 5497 5489 5483 5478 5470 5469 5463 5456 5452 5448 5450 5453 5451 5447 5445 5443 5441 5439 5436 5433 5429 5426 5422 5420 5418 5416 5415
5543 5539 5536 5535 5533 5530 5528 5527 5525 5521 5519 5516 5513 5510 5508 5505 5502 5495 5486 5479 5475 5473 5468 5462 5458 5454 5450 5452 5454 5451 5448 5446 5445 5443 5441 5438 5434 5431 5427 5424 5421 5419 5417 5416
5540 5537 5534 5531 5530 5529 5527 5525 5522 5519 5518 5517 5514 5511 5510 5510 5505 5498 5491 5484 5477 5474 5472 5467 5463 5460 5457 5458 5454 5448 5445 5443 5441 5441 5438 5437 5434 5430 5427 5424 5422 5420 5418 5417
5537 5534 5532 5530 5530 5530 5528 5525 5523 5521 5522 5519 5516 5514 5514 5510 5504 5498 5493 5490 5487 5480 5480 5477 5474 5467 5465 5461 5456 5451 5446 5443 5443 5441 5438 5435 5431 5429 5426 5424 5422 5420 5419 5418
5535 5532 5529 5529 5529 5530 5530 5528 5526 5525 5525 5522 5519 5517 5515 5510 5506 5503 5500 5498 5495 5491 5489 5485 5481 5475 5470 5464 5459 5454 5450 5446 5444 5441 5438 5434 5431 5428 5426 5424 5423 5422 5420 5419